(29777) = 1955 FD = 1977 DC5 = 1999 CK46

Discovered at Socorro on 1999-02-10 by LINEAR.

Orbit

Orbit type: Main Belt

Note: WebGL enabled browser required.

epoch2023-09-13.0
epoch JD2460200.5
perihelion date2022-04-10.61360
perihelion JD2459680.11360
argument of perihelion (°)257.70280
ascending node (°)338.21631
inclination (°)7.60341
eccentricity0.1743272
perihelion distance (AU)2.5890378
Tisserand w.r.t. Jupiter3.2
ΔV w.r.t. Earth (km/sec)10.3
semimajor axis (AU)3.1356704
mean anomaly (°)92.37068
mean daily motion (°/day)0.17750400
aphelion distance (AU)3.682
period (years)5.55
P-vector [x]-0.55717480
P-vector [y]-0.70115861
P-vector [z]-0.44489644
Q-vector [x]0.82894219
Q-vector [y]-0.50131771
Q-vector [z]-0.24806330
absolute magnitude13.35
phase slope0.15
uncertainty0
referenceMPEC 2024-A158
observations used2762
oppositions23
arc length (days)26453
first opposition used1951
last opposition used2024
residual rms (arc-secs)0.60
perturbers coarse indicatorM-v
perturbers precise indicator003Ek
first observation date used1951-08-11.0
last observation date used2024-01-13.0
computer nameMPCLINUX
JD of orbit computation2456966.845541
perihelion JD uncertainty (days)1.1462E-04
argument of perihelion uncertainty (°)3.6168E-05
ascending node uncertainty (°)3.1972E-05
inclination uncertainty (°)5.8419E-06
eccentricity uncertainty 3.9538E-08
perihelion distance uncertainty (AU)1.2629E-07
Minimum Orbit Intersection Distances (in AU)
for orbit epoch: 2460200.5, reference: E2024-AF8
Mercury2.13062
Venus1.87571
Earth1.59065
Mars1.05364
Jupiter1.44353
Saturn5.49651
Uranus15.3614
Neptune26.2334

Observations

2807 total observations over interval: 1951 08 11.43333 – 2024 01 13.088414
These data are available for download (format description).

Date (UT) J2000 RA J2000 Dec Magn Location Ref
1951 08 11.43333 23 59 04.71 +01 26 51.3   261 – Palomar Mountain-DSS MPS 35474
1951 08 11.46806 23 59 03.80 +01 26 50.7   261 – Palomar Mountain-DSS MPS 35474
1955 03 23.21 12 30.9 -09 34 17.7   760 – Goethe Link Observatory, Brooklyn MPC 1216
1977 02 18.70152 11 13 39.74 +04 17 31.6 18.0   381 – Tokyo-Kiso MPC 5589
1977 02 19.65848 11 12 56.79 +04 19 26.4 18.0   381 – Tokyo-Kiso MPC 5589
1977 02 19.69520 11 12 55.07 +04 19 30.6 18.0   381 – Tokyo-Kiso MPC 5589
1986 12 30.25347 05 49 47.51 +33 06 14.4   261 – Palomar Mountain-DSS MPS 35474
1986 12 30.29514 05 49 45.18 +33 06 11.9   261 – Palomar Mountain-DSS MPS 35474
1996 12 08.07872 01 23 47.89 +17 35 35.3 19.0 V 691 – Steward Observatory, Kitt Peak-Spacewatch MPS 80938
1996 12 08.10085 01 23 47.59 +17 35 32.4 20.2 V 691 – Steward Observatory, Kitt Peak-Spacewatch MPS 80938
1996 12 08.12357 01 23 47.33 +17 35 29.0 19.0 V 691 – Steward Observatory, Kitt Peak-Spacewatch MPS 80938
1997 11 06.40139 06 10 25.94 +32 45 34.3   261 – Palomar Mountain-DSS MPS 35474
1997 11 06.43264 06 10 25.30 +32 45 38.3   261 – Palomar Mountain-DSS MPS 35474
1999 02 10.40851 10 33 53.69 +10 33 32.8 17.9   704 – Lincoln Laboratory ETS, New Mexico MPS 3931
1999 02 10.42949 10 33 52.70 +10 33 35.8   704 – Lincoln Laboratory ETS, New Mexico MPS 3931
1999 02 10.45057 10 33 51.68 +10 33 38.7   704 – Lincoln Laboratory ETS, New Mexico MPS 3931
1999 02 10.47198 10 33 50.64 +10 33 40.9 18.5   704 – Lincoln Laboratory ETS, New Mexico MPS 3931
1999 02 10.49290 10 33 49.67 +10 33 43.0 18.5   704 – Lincoln Laboratory ETS, New Mexico MPS 3931
1999 02 13.41902 10 31 30.47 +10 40 44.1 18.0   704 – Lincoln Laboratory ETS, New Mexico MPS 3931
1999 02 13.43303 10 31 29.74 +10 40 46.3 18.2   704 – Lincoln Laboratory ETS, New Mexico MPS 3931
1999 02 13.44705 10 31 29.01 +10 40 47.0 18.7   704 – Lincoln Laboratory ETS, New Mexico MPS 3931
1999 02 13.46109 10 31 28.38 +10 40 50.6 18.7   704 – Lincoln Laboratory ETS, New Mexico MPS 3931
1999 02 13.47504 10 31 27.66 +10 40 52.3 18.7   704 – Lincoln Laboratory ETS, New Mexico MPS 3931
1999 02 23.32470 10 23 06.36 +11 05 41.5 16.7 R 699 – Lowell Observatory-LONEOS MPS 4166
1999 02 23.34510 10 23 05.25 +11 05 44.6   699 – Lowell Observatory-LONEOS MPS 4166
1999 02 23.36553 10 23 04.15 +11 05 47.5   699 – Lowell Observatory-LONEOS MPS 4166
1999 03 19.11159 10 03 59.60 +11 52 21.2 18.0   704 – Lincoln Laboratory ETS, New Mexico MPS 4166
1999 03 19.12966 10 03 58.89 +11 52 22.0 18.0   704 – Lincoln Laboratory ETS, New Mexico MPS 4166
1999 03 19.14770 10 03 58.15 +11 52 23.8 18.2   704 – Lincoln Laboratory ETS, New Mexico MPS 4166
1999 03 19.18381 10 03 56.54 +11 52 27.3 19.0   704 – Lincoln Laboratory ETS, New Mexico MPS 4166
1999 03 20.10958 10 03 20.79 +11 53 24.7   704 – Lincoln Laboratory ETS, New Mexico MPS 4166
1999 03 20.12755 10 03 20.08 +11 53 25.8   704 – Lincoln Laboratory ETS, New Mexico MPS 4166
1999 03 20.14558 10 03 19.40 +11 53 26.7 18.4   704 – Lincoln Laboratory ETS, New Mexico MPS 4166
1999 03 20.16401 10 03 18.65 +11 53 28.8 18.3   704 – Lincoln Laboratory ETS, New Mexico MPS 4166
1999 03 20.18204 10 03 17.97 +11 53 29.7 18.3   704 – Lincoln Laboratory ETS, New Mexico MPS 4166
1999 03 21.18646 10 02 40.23 +11 54 26.6 18.5 R 699 – Lowell Observatory-LONEOS MPS 4499
1999 03 21.20682 10 02 39.44 +11 54 27.7   699 – Lowell Observatory-LONEOS MPS 4499
1999 03 21.22720 10 02 38.66 +11 54 28.8   699 – Lowell Observatory-LONEOS MPS 4499
2001 08 16.33499 00 20 42.61 +05 20 26.1 18.9   704 – Lincoln Laboratory ETS, New Mexico MPS 32757
2001 08 16.34700 00 20 42.26 +05 20 26.0 19.1   704 – Lincoln Laboratory ETS, New Mexico MPS 32757
2001 08 16.35901 00 20 41.96 +05 20 25.7 19.2   704 – Lincoln Laboratory ETS, New Mexico MPS 32757
2001 08 16.37107 00 20 41.64 +05 20 25.5 19.5   704 – Lincoln Laboratory ETS, New Mexico MPS 32757
2001 08 16.38313 00 20 41.34 +05 20 25.0 19.7   704 – Lincoln Laboratory ETS, New Mexico MPS 32757
2001 08 18.33586 00 19 52.30 +05 19 51.3 17.7   704 – Lincoln Laboratory ETS, New Mexico MPS 33177
2001 08 18.34804 00 19 51.92 +05 19 51.5 19.2   704 – Lincoln Laboratory ETS, New Mexico MPS 33177
2001 08 18.36023 00 19 51.58 +05 19 50.3 18.9   704 – Lincoln Laboratory ETS, New Mexico MPS 33177
2001 08 18.37242 00 19 51.26 +05 19 51.0 18.3   704 – Lincoln Laboratory ETS, New Mexico MPS 33177
2001 08 18.38463 00 19 50.90 +05 19 50.0 18.3   704 – Lincoln Laboratory ETS, New Mexico MPS 33177
2001 08 24.35260 00 16 55.33 +05 15 15.0 17.9   704 – Lincoln Laboratory ETS, New Mexico MPS 33177
2001 08 24.39638 00 16 53.86 +05 15 13.4 19.1   704 – Lincoln Laboratory ETS, New Mexico MPS 33177
2001 08 24.41063 00 16 53.36 +05 15 12.0 19.0   704 – Lincoln Laboratory ETS, New Mexico MPS 33177
2001 09 08.34863 00 07 15.15 +04 46 47.8 18.5 V 333 – Desert Eagle Observatory MPS 34092
2001 09 08.35746 00 07 14.75 +04 46 46.6 18.5 V 333 – Desert Eagle Observatory MPS 34092
2001 09 08.36612 00 07 14.29 +04 46 45.4 18.6 V 333 – Desert Eagle Observatory MPS 34092
2001 09 09.32914 00 06 32.01 +04 44 12.4 18.1 V 333 – Desert Eagle Observatory MPS 34092
2001 09 09.34140 00 06 31.41 +04 44 11.1 18.3 V 333 – Desert Eagle Observatory MPS 34092
2001 09 09.35383 00 06 30.86 +04 44 09.2 18.2 V 333 – Desert Eagle Observatory MPS 34092
2001 09 10.36740 00 05 45.58 +04 41 22.9 17.8 R 699 – Lowell Observatory-LONEOS MPS 34092
2001 09 10.39488 00 05 44.34 +04 41 17.7   699 – Lowell Observatory-LONEOS MPS 34092
2001 09 10.42241 00 05 43.08 +04 41 13.7   699 – Lowell Observatory-LONEOS MPS 34092
2001 09 10.45003 00 05 41.80 +04 41 09.1   699 – Lowell Observatory-LONEOS MPS 34092
2001 09 15.26318 00 02 01.85 +04 26 59.4 17.3   644 – Palomar Mountain/NEAT MPS 35474
2001 09 15.28415 00 02 00.84 +04 26 55.6 17.3   644 – Palomar Mountain/NEAT MPS 35474
2001 09 15.30514 00 01 59.83 +04 26 51.6 17.7   644 – Palomar Mountain/NEAT MPS 35474
2001 09 16.36210 00 01 10.52 +04 23 32.3 17.6   704 – Lincoln Laboratory ETS, New Mexico MPS 35474
2001 09 16.37645 00 01 09.76 +04 23 31.2 18.4   704 – Lincoln Laboratory ETS, New Mexico MPS 35474
2001 09 16.37678 00 01 09.75 +04 23 30.5 17.8   704 – Lincoln Laboratory ETS, New Mexico MPS 35474
2001 09 16.39079 00 01 09.10 +04 23 27.9 18.1   704 – Lincoln Laboratory ETS, New Mexico MPS 35474
2001 09 16.39112 00 01 09.12 +04 23 28.0 17.7   704 – Lincoln Laboratory ETS, New Mexico MPS 35474
2001 09 16.40514 00 01 08.42 +04 23 25.1 17.8   704 – Lincoln Laboratory ETS, New Mexico MPS 35474
2001 09 16.40548 00 01 08.42 +04 23 25.5 17.7   704 – Lincoln Laboratory ETS, New Mexico MPS 35474
2001 09 16.41967 00 01 07.72 +04 23 22.4 17.9   704 – Lincoln Laboratory ETS, New Mexico MPS 35474
2001 09 16.42000 00 01 07.73 +04 23 22.9 18.0   704 – Lincoln Laboratory ETS, New Mexico MPS 35474
2001 09 18.18732 23 59 45.15 +04 17 42.4 17.8 R 699 – Lowell Observatory-LONEOS MPS 35474
2001 09 18.21084 23 59 44.04 +04 17 37.4   699 – Lowell Observatory-LONEOS MPS 35474
2001 09 18.23449 23 59 42.89 +04 17 33.2   699 – Lowell Observatory-LONEOS MPS 35474
2001 09 18.25789 23 59 41.73 +04 17 28.6   699 – Lowell Observatory-LONEOS MPS 35474
2001 09 20.25618 23 58 07.65 +04 10 52.8 17.6   704 – Lincoln Laboratory ETS, New Mexico MPS 35474
2001 09 20.27033 23 58 06.99 +04 10 50.8 18.0   704 – Lincoln Laboratory ETS, New Mexico MPS 35474
2001 09 20.28448 23 58 06.29 +04 10 47.4 18.0   704 – Lincoln Laboratory ETS, New Mexico MPS 35474
2001 09 20.29863 23 58 05.60 +04 10 44.7 18.2   704 – Lincoln Laboratory ETS, New Mexico MPS 35474
2001 09 20.31277 23 58 04.91 +04 10 41.9 18.2   704 – Lincoln Laboratory ETS, New Mexico MPS 35474
2001 09 21.31908 23 57 17.51 +04 07 18.5 17.1   644 – Palomar Mountain/NEAT MPS 35474
2001 09 21.34052 23 57 16.48 +04 07 14.2 17.4   644 – Palomar Mountain/NEAT MPS 35474
2001 09 21.36192 23 57 15.45 +04 07 09.9 17.4   644 – Palomar Mountain/NEAT MPS 35474
2001 09 22.25835 23 56 33.34 +04 04 07.1 18.2   704 – Lincoln Laboratory ETS, New Mexico MPS 35474
2001 09 22.27253 23 56 32.66 +04 04 04.2 18.4   704 – Lincoln Laboratory ETS, New Mexico MPS 35474
2001 09 22.28670 23 56 31.98 +04 04 01.1 18.2   704 – Lincoln Laboratory ETS, New Mexico MPS 35474
